Location: Newark
(30.9333°N, 122.8333°E)
Time: 12:59:30
(UTC+00:00)

Envisat - Visible Passes

Search period start: 26 January 2020 00:00
Search period end: 05 February 2020 00:00
Orbit: 764 x 766 km, 98.1° (Epoch: 26 January)

Date Brightness Start Highest point End Pass type
(mag) Time Alt. Az. Time Alt. Az. Time Alt. Az.
26 Jan 3.9 10:07:37 10° S 10:12:34 54° W 10:17:32 10° NNW visible
27 Jan 6.4 11:13:42 10° WSW 11:15:09 11° W 11:16:34 10° WNW visible
27 Jan 5.0 21:45:36 10° NE 21:50:08 32° E 21:54:39 10° SSE visible
28 Jan 5.2 10:33:47 10° SSW 10:38:07 28° W 10:42:28 10° NW visible
28 Jan 6.3 21:10:53 10° ENE 21:13:08 13° E 21:15:24 10° ESE visible
29 Jan 3.3 09:56:13 10° S 10:01:16 72° WSW 10:06:20 10° NNW visible
29 Jan 3.7 22:10:38 10° NNE 22:15:40 62° E 22:20:41 10° S visible
30 Jan 6.1 11:00:53 10° SW 11:03:45 15° W 11:06:37 10° WNW visible
30 Jan 5.5 21:34:40 10° NE 21:38:48 25° E 21:42:55 10° SSE visible
31 Jan 4.7 10:22:07 10° SSW 10:26:47 37° W 10:31:28 10° NNW visible
01 Feb 3.0 09:44:55 10° SSE 09:49:58 87° E 09:55:05 10° NNW visible
01 Feb 4.2 21:59:28 10° NNE 22:04:22 47° E 22:09:14 10° S visible
02 Feb 5.8 10:48:45 10° SW 10:52:23 20° W 10:56:03 10° NW visible
02 Feb 5.9 21:23:52 10° NE 21:27:27 19° E 21:30:59 10° SE visible
03 Feb 4.1 10:10:35 10° S 10:15:28 49° W 10:20:23 10° NNW visible
04 Feb 4.8 21:48:24 10° NNE 21:53:03 36° E 21:57:40 10° SSE visible
